Location: Advent Pentecost Church
(32.7757°N, 96.7408°W)
Time: 01:59:35
(UTC+00:00)

X-37B - Visible Passes

Search period start: 21 October 2021 00:00
Search period end: 31 October 2021 00:00
Orbit: 385 x 389 km, 45.0° (Epoch: 17 October)

Date Brightness Start Highest point End Pass type
(mag) Time Alt. Az. Time Alt. Az. Time Alt. Az.
22 Oct 3.3 01:14:39 10° N 01:15:09 11° N 01:15:09 11° N visible
24 Oct 2.7 00:53:59 10° NNW 00:55:53 15° NNE 00:55:59 15° NNE visible
25 Oct 3.0 01:31:33 10° NW 01:32:39 18° NNW 01:32:39 18° NNW visible
26 Oct 2.2 00:33:28 10° NNW 00:36:01 21° NNE 00:37:08 18° NE visible
27 Oct 0.8 01:11:17 10° NW 01:14:02 61° NNW 01:14:02 61° NNW visible
28 Oct 1.3 00:13:04 10° NW 00:16:02 36° NNE 00:18:48 11° E visible
28 Oct 3.6 01:50:02 10° W 01:51:08 16° WSW 01:51:08 16° WSW visible
29 Oct 1.5 00:51:14 10° WNW 00:54:18 47° SW 00:56:07 21° SSE visible
